| time (UTC) | temp F | wind direction | speed knots | gust knots | rain 1hr in | rain 24hr in | rain mn in | humidity % | barometer mb |
| 20260504034523 | 61 | 360 | 13.0 | 20.0 | 0.00 | 0.00 | 0.00 | 40 | 1005.5 |
| 20260504034026 | 61 | 360 | 13.0 | 22.6 | 0.00 | 0.00 | 0.00 | 39 | 1005.3 |
| 20260504033522 | 61 | 360 | 13.9 | 20.9 | 0.00 | 0.00 | 0.00 | 39 | 1005.1 |
| 20260504033021 | 62 | 360 | 14.8 | 27.8 | 0.00 | 0.00 | 0.00 | 38 | 1005.0 |
| 20260504032522 | 63 | 360 | 17.4 | 27.8 | 0.00 | 0.00 | 0.00 | 37 | 1004.8 |
| 20260504032022 | 63 | 360 | 13.9 | 21.7 | 0.00 | 0.00 | 0.00 | 37 | 1004.5 |
| 20260504031522 | 62 | 275 | 8.7 | 11.3 | 0.00 | 0.00 | 0.00 | 38 | 1004.1 |
| 20260504031022 | 63 | 360 | 8.7 | 12.2 | 0.00 | 0.00 | 0.00 | 38 | 1004.0 |
| 20260504030020 | 63 | 281 | 8.7 | 13.0 | 0.00 | 0.00 | 0.00 | 37 | 1004.0 |
| 20260504025521 | 64 | 360 | 9.6 | 13.9 | 0.00 | 0.00 | 0.00 | 37 | 1004.0 |
| 20260504025021 | 64 | 360 | 10.4 | 14.8 | 0.00 | 0.00 | 0.00 | 37 | 1003.9 |
| 20260504024520 | 64 | 360 | 10.4 | 14.8 | 0.00 | 0.00 | 0.00 | 37 | 1004.0 |
| 20260504024019 | 64 | 360 | 10.4 | 13.9 | 0.00 | 0.00 | 0.00 | 37 | 1004.0 |
| 20260504023519 | 64 | 360 | 8.7 | 13.0 | 0.00 | 0.00 | 0.00 | 37 | 1004.0 |
| 20260504023019 | 64 | 360 | 8.7 | 13.0 | 0.00 | 0.00 | 0.00 | 37 | 1003.8 |
| 20260504022523 | 65 | 360 | 9.6 | 13.0 | 0.00 | 0.00 | 0.00 | 36 | 1003.8 |
| 20260504022019 | 65 | 273 | 9.6 | 13.9 | 0.00 | 0.00 | 0.00 | 36 | 1003.9 |
| 20260504021519 | 66 | 360 | 10.4 | 14.8 | 0.00 | 0.00 | 0.00 | 35 | 1003.7 |
| 20260504021018 | 66 | 274 | 10.4 | 14.8 | 0.00 | 0.00 | 0.00 | 35 | 1003.6 |
| 20260504020619 | 67 | 281 | 9.6 | 16.5 | 0.00 | 0.00 | 0.00 | 34 | 1003.7 |
| 20260504020019 | 68 | 360 | 12.2 | 16.5 | 0.00 | 0.00 | 0.00 | 34 | 1003.7 |
| 20260504015518 | 68 | 360 | 11.3 | 19.1 | 0.00 | 0.00 | 0.00 | 33 | 1003.7 |
| 20260504015030 | 68 | 360 | 13.0 | 19.1 | 0.00 | 0.00 | 0.00 | 32 | 1003.7 |
| 20260504014537 | 69 | 360 | 13.9 | 23.5 | 0.00 | 0.00 | 0.00 | 32 | 1003.7 |
| 20260504014021 | 70 | 360 | 15.6 | 23.5 | 0.00 | 0.00 | 0.00 | 31 | 1003.7 |
| 20260504013518 | 70 | 271 | 17.4 | 25.2 | 0.00 | 0.00 | 0.00 | 30 | 1003.8 |
| 20260504013018 | 71 | 360 | 20.0 | 25.2 | 0.00 | 0.00 | 0.00 | 29 | 1003.7 |
| 20260504012520 | 71 | 269 | 19.1 | 24.3 | 0.00 | 0.00 | 0.00 | 28 | 1003.7 |
| 20260504012017 | 72 | 279 | 19.1 | 25.2 | 0.00 | 0.00 | 0.00 | 27 | 1003.7 |
| 20260504011517 | 72 | 281 | 18.2 | 25.2 | 0.00 | 0.00 | 0.00 | 26 | 1003.7 |
| 20260504011014 | 72 | 264 | 15.6 | 22.6 | 0.00 | 0.00 | 0.00 | 24 | 1003.9 |
| 20260504010015 | 72 | 245 | 15.6 | 23.5 | 0.00 | 0.00 | 0.00 | 25 | 1003.9 |
| 20260504005516 | 72 | 252 | 17.4 | 26.1 | 0.00 | 0.00 | 0.00 | 25 | 1004.0 |
| 20260504005015 | 72 | 248 | 18.2 | 28.7 | 0.00 | 0.00 | 0.00 | 24 | 1004.0 |
| 20260504004514 | 72 | 244 | 20.0 | 28.7 | 0.00 | 0.00 | 0.00 | 24 | 1004.0 |
| 20260504004014 | 72 | 247 | 18.2 | 25.2 | 0.00 | 0.00 | 0.00 | 24 | 1004.1 |
| 20260504003514 | 73 | 269 | 17.4 | 26.1 | 0.00 | 0.00 | 0.00 | 23 | 1004.2 |
| 20260504003013 | 73 | 247 | 20.9 | 28.7 | 0.00 | 0.00 | 0.00 | 23 | 1004.0 |
| 20260504002614 | 74 | 265 | 19.1 | 28.7 | 0.00 | 0.00 | 0.00 | 21 | 1004.2 |
| 20260504002012 | 74 | 253 | 20.0 | 26.1 | 0.00 | 0.00 | 0.00 | 21 | 1004.2 |
| 20260504001512 | 74 | 254 | 17.4 | 29.5 | 0.00 | 0.00 | 0.00 | 23 | 1004.2 |
| 20260504001012 | 74 | 247 | 21.7 | 29.5 | 0.00 | 0.00 | 0.00 | 22 | 1004.3 |
| 20260504000035 | 74 | 360 | 19.1 | 33.0 | 0.00 | 0.00 | 0.00 | 22 | 1004.4 |
| 20260503235516 | 75 | 360 | 21.7 | 28.7 | 0.00 | 0.00 | 0.00 | 22 | 1004.3 |
| 20260503235016 | 75 | 360 | 19.1 | 24.3 | 0.00 | 0.00 | 0.00 | 25 | 1004.4 |
| 20260503234515 | 74 | 263 | 17.4 | 24.3 | 0.00 | 0.00 | 0.00 | 25 | 1004.5 |
| 20260503234015 | 74 | 257 | 17.4 | 21.7 | 0.00 | 0.00 | 0.00 | 25 | 1004.7 |
| 20260503233514 | 75 | 240 | 16.5 | 23.5 | 0.00 | 0.00 | 0.00 | 25 | 1004.8 |
| 20260503233019 | 75 | 248 | 15.6 | 27.8 | 0.00 | 0.00 | 0.00 | 25 | 1004.8 |
| 20260503232512 | 74 | 260 | 20.9 | 27.8 | 0.00 | 0.00 | 0.00 | 24 | 1004.8 |
| 20260503232010 | 75 | 360 | 18.2 | 26.1 | 0.00 | 0.00 | 0.00 | 25 | 1005.0 |
| 20260503231509 | 74 | 256 | 19.1 | 26.1 | 0.00 | 0.00 | 0.00 | 26 | 1005.0 |
| 20260503231008 | 75 | 238 | 19.1 | 24.3 | 0.00 | 0.00 | 0.00 | 25 | 1005.1 |
| 20260503230100 | 74 | 237 | 16.5 | 26.1 | 0.00 | 0.00 | 0.00 | 26 | 1005.1 |
| 20260503225603 | 75 | 254 | 18.2 | 26.1 | 0.00 | 0.00 | 0.00 | 25 | 1005.2 |
| 20260503225057 | 74 | 248 | 17.4 | 26.9 | 0.00 | 0.00 | 0.00 | 25 | 1005.5 |
| 20260503224556 | 74 | 360 | 20.0 | 30.4 | 0.00 | 0.00 | 0.00 | 26 | 1005.6 |
| 20260503224058 | 74 | 242 | 20.9 | 30.4 | 0.00 | 0.00 | 0.00 | 26 | 1005.7 |
| 20260503223556 | 74 | 239 | 21.7 | 27.8 | 0.00 | 0.00 | 0.00 | 25 | 1005.7 |
| 20260503223055 | 74 | 360 | 18.2 | 25.2 | 0.00 | 0.00 | 0.00 | 25 | 1005.8 |
| 20260503222553 | 74 | 248 | 16.5 | 22.6 | 0.00 | 0.00 | 0.00 | 25 | 1005.9 |
| 20260503222054 | 74 | 227 | 16.5 | 21.7 | 0.00 | 0.00 | 0.00 | 24 | 1006.2 |
| 20260503221559 | 74 | 243 | 14.8 | 20.9 | 0.00 | 0.00 | 0.00 | 25 | 1006.1 |
| 20260503221051 | 74 | 360 | 13.9 | 27.8 | 0.00 | 0.00 | 0.00 | 26 | 1006.2 |
| 20260503220651 | 73 | 251 | 15.6 | 24.3 | 0.00 | 0.00 | 0.00 | 24 | 1006.4 |
| 20260503215549 | 74 | 250 | 19.1 | 25.2 | 0.00 | 0.00 | 0.00 | 23 | 1006.5 |
| 20260503215049 | 73 | 248 | 14.8 | 22.6 | 0.00 | 0.00 | 0.00 | 22 | 1006.6 |
| 20260503214551 | 74 | 242 | 13.9 | 22.6 | 0.00 | 0.00 | 0.00 | 22 | 1006.7 |
| 20260503214051 | 74 | 360 | 19.1 | 22.6 | 0.00 | 0.00 | 0.00 | 23 | 1006.9 |
| 20260503213550 | 73 | 246 | 13.9 | 22.6 | 0.00 | 0.00 | 0.00 | 23 | 1006.9 |
| 20260503213049 | 74 | 236 | 18.2 | 22.6 | 0.00 | 0.00 | 0.00 | 22 | 1007.1 |
| 20260503212546 | 73 | 248 | 15.6 | 22.6 | 0.00 | 0.00 | 0.00 | 22 | 1007.1 |
| 20260503212044 | 73 | 246 | 15.6 | 22.6 | 0.00 | 0.00 | 0.00 | 21 | 1007.2 |
| 20260503211545 | 72 | 257 | 14.8 | 26.9 | 0.00 | 0.00 | 0.00 | 27 | 1007.5 |
| 20260503211043 | 73 | 253 | 16.5 | 26.9 | 0.00 | 0.00 | 0.00 | 24 | 1007.5 |
| 20260503210542 | 74 | 225 | 18.2 | 23.5 | 0.00 | 0.00 | 0.00 | 26 | 1007.6 |
| 20260503210053 | 74 | 231 | 17.4 | 26.1 | 0.00 | 0.00 | 0.00 | 26 | 1007.6 |
| 20260503205542 | 73 | 251 | 15.6 | 27.8 | 0.00 | 0.00 | 0.00 | 27 | 1007.6 |
| 20260503205041 | 73 | 256 | 16.5 | 27.8 | 0.00 | 0.00 | 0.00 | 26 | 1007.7 |
| 20260503204557 | 73 | 248 | 18.2 | 27.8 | 0.00 | 0.00 | 0.00 | 26 | 1007.9 |
| 20260503204040 | 73 | 238 | 18.2 | 26.1 | 0.00 | 0.00 | 0.00 | 29 | 1007.9 |
| 20260503203541 | 72 | 255 | 14.8 | 25.2 | 0.00 | 0.00 | 0.00 | 26 | 1008.0 |
| 20260503203040 | 72 | 241 | 20.0 | 25.2 | 0.00 | 0.00 | 0.00 | 28 | 1008.0 |
| 20260503202539 | 72 | 360 | 14.8 | 23.5 | 0.00 | 0.00 | 0.00 | 31 | 1008.1 |
| 20260503202038 | 73 | 246 | 19.1 | 23.5 | 0.00 | 0.00 | 0.00 | 31 | 1008.1 |
| 20260503201539 | 72 | 241 | 15.6 | 23.5 | 0.00 | 0.00 | 0.00 | 28 | 1008.1 |
| 20260503201036 | 73 | 360 | 13.9 | 23.5 | 0.00 | 0.00 | 0.00 | 28 | 1008.4 |
| 20260503200636 | 73 | 253 | 18.2 | 26.9 | 0.00 | 0.00 | 0.00 | 25 | 1008.7 |
| 20260503200043 | 73 | 360 | 14.8 | 25.2 | 0.00 | 0.00 | 0.00 | 27 | 1008.7 |
| 20260503195535 | 72 | 240 | 16.5 | 24.3 | 0.00 | 0.00 | 0.00 | 27 | 1008.8 |
| 20260503195033 | 73 | 257 | 17.4 | 23.5 | 0.00 | 0.00 | 0.00 | 27 | 1008.8 |
| 20260503194534 | 73 | 360 | 13.9 | 24.3 | 0.00 | 0.00 | 0.00 | 29 | 1008.9 |
| 20260503194031 | 73 | 240 | 17.4 | 24.3 | 0.00 | 0.00 | 0.00 | 30 | 1008.9 |
| 20260503193531 | 72 | 248 | 15.6 | 22.6 | 0.00 | 0.00 | 0.00 | 31 | 1009.0 |
| 20260503193032 | 72 | 247 | 15.6 | 24.3 | 0.00 | 0.00 | 0.00 | 32 | 1009.2 |
| 20260503192528 | 72 | 243 | 13.0 | 23.5 | 0.00 | 0.00 | 0.00 | 35 | 1009.1 |
| 20260503192028 | 73 | 229 | 16.5 | 20.9 | 0.00 | 0.00 | 0.00 | 32 | 1009.4 |
| 20260503191529 | 72 | 241 | 12.2 | 27.8 | 0.00 | 0.00 | 0.00 | 35 | 1009.4 |
| 20260503191027 | 71 | 360 | 15.6 | 27.8 | 0.00 | 0.00 | 0.00 | 35 | 1009.7 |
| 20260503190625 | 72 | 360 | 16.5 | 23.5 | 0.00 | 0.00 | 0.00 | 35 | 1009.8 |
| 20260503190025 | 72 | 360 | 16.5 | 24.3 | 0.00 | 0.00 | 0.00 | 35 | 1009.9 |
| 20260503185523 | 71 | 219 | 15.6 | 26.9 | 0.00 | 0.00 | 0.00 | 35 | 1010.0 |
| 20260503185025 | 71 | 238 | 14.8 | 26.9 | 0.00 | 0.00 | 0.00 | 36 | 1010.1 |
| 20260503184527 | 71 | 360 | 17.4 | 25.2 | 0.00 | 0.00 | 0.00 | 35 | 1010.2 |
| 20260503184021 | 70 | 240 | 13.9 | 24.3 | 0.00 | 0.00 | 0.00 | 34 | 1010.4 |
| 20260503183520 | 71 | 360 | 19.1 | 24.3 | 0.00 | 0.00 | 0.00 | 34 | 1010.5 |
| 20260503183023 | 70 | 360 | 13.9 | 26.9 | 0.00 | 0.00 | 0.00 | 34 | 1010.5 |
| 20260503182517 | 70 | 217 | 18.2 | 26.9 | 0.00 | 0.00 | 0.00 | 35 | 1010.8 |
| 20260503182017 | 70 | 360 | 15.6 | 39.1 | 0.00 | 0.00 | 0.00 | 35 | 1010.8 |
| 20260503181517 | 71 | 240 | 15.6 | 39.1 | 0.00 | 0.00 | 0.00 | 33 | 1010.8 |
| 20260503181017 | 70 | 227 | 13.9 | 24.3 | 0.00 | 0.00 | 0.00 | 36 | 1010.9 |
| 20260503180615 | 70 | 360 | 13.9 | 23.5 | 0.00 | 0.00 | 0.00 | 35 | 1011.1 |
| 20260503180015 | 70 | 360 | 13.9 | 23.5 | 0.00 | 0.00 | 0.00 | 35 | 1011.1 |
| 20260503175515 | 70 | 360 | 17.4 | 23.5 | 0.00 | 0.00 | 0.00 | 35 | 1011.3 |
| 20260503175013 | 69 | 227 | 14.8 | 22.6 | 0.00 | 0.00 | 0.00 | 36 | 1011.3 |
| 20260503174512 | 69 | 360 | 17.4 | 25.2 | 0.00 | 0.00 | 0.00 | 34 | 1011.6 |
| 20260503174015 | 69 | 360 | 15.6 | 25.2 | 0.00 | 0.00 | 0.00 | 35 | 1011.6 |
| 20260503173511 | 69 | 360 | 13.9 | 20.0 | 0.00 | 0.00 | 0.00 | 36 | 1011.6 |
| 20260503173010 | 69 | 360 | 14.8 | 21.7 | 0.00 | 0.00 | 0.00 | 36 | 1011.6 |
| 20260503172509 | 68 | 225 | 13.9 | 23.5 | 0.00 | 0.00 | 0.00 | 36 | 1011.8 |
| 20260503172010 | 69 | 258 | 14.8 | 23.5 | 0.00 | 0.00 | 0.00 | 37 | 1011.9 |
| 20260503171506 | 69 | 241 | 13.9 | 20.9 | 0.00 | 0.00 | 0.00 | 36 | 1012.1 |
| 20260503171007 | 68 | 360 | 12.2 | 20.9 | 0.00 | 0.00 | 0.00 | 37 | 1012.2 |
| 20260503170607 | 68 | 232 | 15.6 | 20.9 | 0.00 | 0.00 | 0.00 | 36 | 1012.4 |
| 20260503150644 | 61 | 360 | 14.8 | 20.0 | 0.00 | 0.00 | 0.00 | 41 | 1014.1 |
| 20260503131021 | 48 | 360 | 10.4 | 13.9 | 0.00 | 0.00 | 0.00 | 58 | 1014.8 |
| 20260503130520 | 46 | 360 | 1.7 | 5.2 | 0.00 | 0.00 | 0.00 | 62 | 1014.8 |
| 20260503110505 | 38 | 360 | 1.7 | 3.5 | 0.00 | 0.00 | 0.00 | 69 | 1015.5 |
| 20260503081557 | 40 | 360 | 0.0 | 1.7 | 0.00 | 0.00 | 0.00 | 66 | 1016.2 |
| 20260503081051 | 40 | 360 | 0.0 | 1.7 | 0.00 | 0.00 | 0.00 | 66 | 1016.2 |
| 20260503080550 | 40 | 360 | 0.0 | 1.7 | 0.00 | 0.00 | 0.00 | 65 | 1016.3 |
| 20260503072545 | 40 | 360 | 0.0 | 0.0 | 0.00 | 0.00 | 0.00 | 66 | 1016.4 |
| 20260503072045 | 40 | 360 | 0.0 | 0.0 | 0.00 | 0.00 | 0.00 | 66 | 1016.5 |
| 20260503071545 | 40 | 360 | 0.0 | 0.0 | 0.00 | 0.00 | 0.00 | 66 | 1016.4 |
| 20260503071042 | 40 | 360 | 0.0 | 0.0 | 0.00 | 0.00 | 0.00 | 66 | 1016.4 |
| 20260503070541 | 40 | 360 | 0.0 | 0.0 | 0.00 | 0.00 | 0.00 | 65 | 1016.5 |
| 20260503055034 | 43 | 360 | 0.0 | 0.0 | 0.00 | 0.00 | 0.00 | 63 | 1016.5 |
| 20260503054538 | 43 | 360 | 0.0 | 0.0 | 0.00 | 0.00 | 0.00 | 64 | 1016.5 |
| 20260503054034 | 42 | 360 | 0.0 | 0.9 | 0.00 | 0.00 | 0.00 | 64 | 1016.3 |
| 20260503053535 | 42 | 360 | 0.0 | 1.7 | 0.00 | 0.00 | 0.00 | 64 | 1016.4 |
| 20260503053033 | 43 | 360 | 0.0 | 1.7 | 0.00 | 0.00 | 0.00 | 63 | 1016.3 |
| 20260503052534 | 43 | 360 | 0.0 | 0.0 | 0.00 | 0.00 | 0.00 | 63 | 1016.4 |
| 20260503052032 | 43 | 360 | 0.0 | 0.0 | 0.00 | 0.00 | 0.00 | 63 | 1016.3 |
| 20260503051532 | 43 | 360 | 0.0 | 0.0 | 0.00 | 0.00 | 0.00 | 63 | 1016.4 |
| 20260503051032 | 43 | 360 | 0.0 | 0.0 | 0.00 | 0.00 | 0.00 | 62 | 1016.4 |
| 20260503050530 | 43 | 360 | 0.0 | 1.7 | 0.00 | 0.00 | 0.00 | 62 | 1016.4 |
| 20260503045529 | 44 | 360 | 0.0 | 3.5 | 0.00 | 0.00 | 0.00 | 61 | 1016.5 |
| 20260503045032 | 44 | 360 | 0.9 | 3.5 | 0.00 | 0.00 | 0.00 | 61 | 1016.4 |
| 20260503044538 | 45 | 360 | 0.9 | 2.6 | 0.00 | 0.00 | 0.00 | 60 | 1016.5 |
| 20260503044029 | 46 | 360 | 0.0 | 2.6 | 0.00 | 0.00 | 0.00 | 57 | 1016.5 |
| 20260503043527 | 47 | 360 | 0.9 | 4.3 | 0.00 | 0.00 | 0.00 | 56 | 1016.6 |
| 20260503043027 | 47 | 360 | 2.6 | 4.3 | 0.00 | 0.00 | 0.00 | 55 | 1016.6 |
| 20260503042527 | 47 | 360 | 3.5 | 4.3 | 0.00 | 0.00 | 0.00 | 55 | 1016.5 |
| 20260503042027 | 47 | 76 | 3.5 | 4.3 | 0.00 | 0.00 | 0.00 | 55 | 1016.6 |
| 20260503041527 | 47 | 360 | 2.6 | 4.3 | 0.00 | 0.00 | 0.00 | 56 | 1016.6 |
| 20260503041025 | 46 | 360 | 3.5 | 4.3 | 0.00 | 0.00 | 0.00 | 57 | 1016.6 |
| 20260503040526 | 46 | 360 | 3.5 | 4.3 | 0.00 | 0.00 | 0.00 | 58 | 1016.6 |
| 20260503035528 | 46 | 360 | 1.7 | 3.5 | 0.00 | 0.00 | 0.00 | 56 | 1016.6 |
| 20260503035031 | 46 | 360 | 2.6 | 3.5 | 0.00 | 0.00 | 0.00 | 56 | 1016.7 |